Regional Weather Roundup
Issued by NWS

Home | Current Version | Previous Version | Text Only | Print | Product List | Glossary On
Versions: 1 2 3 4 5 6 7 8 9 10 11 12 13 14 15 16 17 18 19 20 21 22 23 24 25 26 27 28 29 30 31 32 33 34 35 36 37 38 39 40 41 42 43 44 45 46 47 48 49 50
173
ASUS43 KFSD 240210
RWRSD

WEATHER ROUNDUP FOR SOUTH DAKOTA
NATIONAL WEATHER SERVICE SIOUX FALLS SD
900 PM CDT FRI JUN 23 2017

NOTE: "FAIR" INDICATES FEW OR NO CLOUDS BELOW 12,000 FEET WITH NO
SIGNIFICANT WEATHER AND/OR OBSTRUCTIONS TO VISIBILITY.


SDZ001>005-009-010-012>017-240300-
NORTHWEST AND NORTH CENTRAL SOUTH DAKOTA

CITY           SKY/WX    TMP DP  RH WIND       PRES   REMARKS
BUFFALO          N/A     64  28  25 NW18      30.12R
FAITH            N/A     63  32  31 NW14      30.15R
MOBRIDGE       CLEAR     66  33  29 NW16      30.07R
$$

SDZ012>016-024>037-041>051-057-063-072>074-240300-
SOUTHWEST AND SOUTH CENTRAL SOUTH DAKOTA

CITY           SKY/WX    TMP DP  RH WIND       PRES   REMARKS
RAPID CTY ARPT CLEAR     64  27  24 N17       30.20R
PIERRE         CLEAR     65  36  34 NW13      30.09S
CUSTER         CLEAR     56  23  27 NW9       30.27R
ELLSWORTH AFB  CLEAR     65  27  23 N16       30.19R
PHILIP         CLEAR     66  29  24 N13       30.14R
PINE RIDGE     CLEAR     64  33  31 NE7       30.20R
SPEARFISH      FAIR      61  28  29 NW10G17   30.24R
WINNER         FAIR      66  33  29 N10       30.12R
$$

SDZ004>011-016>023-039-040-240300-
NORTHEAST SOUTH DAKOTA

CITY           SKY/WX    TMP DP  RH WIND       PRES   REMARKS
ABERDEEN       PTCLDY    63  38  39 N15G23    30.05R
WATERTOWN      PTCLDY    60  42  51 NW14      30.02R
BROOKINGS      PTCLDY    60  40  47 NW12      30.03R
SISSETON         N/A     62  40  44 NW13      29.99R
$$

SDZ017-020-022-023-036>040-048>070-240300-
SOUTHEAST SOUTH DAKOTA

CITY           SKY/WX    TMP DP  RH WIND       PRES   REMARKS
SIOUX FALLS    PTCLDY    63  41  44 NW13      30.03R
HURON          CLEAR     59  43  55 NW8       30.06R
CHAMBERLAIN    CLEAR     67  38  34 NW8       30.10S
MITCHELL       CLEAR     65  37  35 N13       30.07R
YANKTON        CLEAR     64  40  41 NW8       30.06R
$$

ABBREVIATIONS USED IN REMARKS
   TC - TEMPERATURE IN CELSIUS
  WCI - WIND CHILL INDEX
   HX - HEAT INDEX
  VSB - VISIBILITY





USA.gov is the U.S. government's official web portal to all federal, state and local government web resources and services.